CZ-3B DEB, 40852

Orbit data source: Space-Track

CZ-3B DEB, 40852 is space debris in HEO originally from a launch on Mon, 19 Dec 2011 UTC launched from the Xichang Space Center, China (XSC). Debris objects in space refer to the collection of defunct objects orbiting the Earth. Examples of debris include non-operational satellites, rocket bodies, and fragments generated from explosions, collisions, or faulty payload assembly.

Loading next visibility...
Identifier
40852, 2011-077AH
Orbit
HEO
Country
Flag of CNCN / PRC
Related business
Manufacturer
CALT
Mission
Spacecraft
Bus & Motor
Unknown
Mass
Unknown
Launch date (UTC)
2011-12-19 (14 years ago)
Launch vehicle
Unknown
Launch site
Xichang Space Center, China (XSC)
Object type
Payload
Rocket body
Debris
Shape & HBR
Unknown shape, 0.2 m
Radar Cross Section
Medium (>0.1 m² and <1 m²)

Expand to show TLE details & history
Last TLE update: 4 days ago

TLE from 4 days ago
0 CZ-3B DEB
1 40852U 11077AH  26066.80758556 -.00000469  00000-0  00000-0 0  9999
2 40852  26.8920  63.8864 7333874 263.4961  16.5992  1.90693005 84422
Epoch: 2026-03-07T19:22Z
TLE epoch observation values (Epoch: 2026-03-07T19:22:55.392Z)
Latitude
-0.00078°
Longitude
-32.36295°
Altitude
7,435.31 km
Speed
6.573 km/s
True Right ascension
04h 15m 34s
True Declination
0° 00' 03"
Sunlit
Object was in daylight at epoch
Visualization orbit readout
Latitude
Unknown
Longitude
Unknown
Altitude
Unknown
Speed
Unknown
Apparent Right ascension
Unknown
Apparent Declination
Unknown
Sunlit
N/A
Visualization observer readout
Local Sidereal Time
08:24:05
Azimuth
Unknown
Elevation
Unknown
Doppler factor
Unknown
Orbital elements
Apogee altitude
41,242.715 km
Perigee altitude
946.434 km
Semi-major axis
27,472.711 km
Eccentricity
0.73339
Inclination
26.892°
RAAN
63.8864°
Arg. of periapsis
263.4961°
True anomaly
96.78998°
Mean anomaly
16.5992°
Eccentric anomaly
47.65753°
Mean motion
0.47664 °/min
Orbital period
755.29 mins
BSTAR
0
Loading maneuver chart data...
Computing Atmospheric mass density...
Loading historical data...
Loading historical data...
Loading historical data...
Loading historical data...
Loading historical data...
Loading historical data...
Loading historical data...

Documentation

Showing up to 5 results
|